When you browse on this site, cookies collect data to enhance your experience and personalize the content and advertising you see.
Visit our Privacy Policy to learn more. By continuing to use the site, you agree to this use of cookies and data.
  • In Hungary
  • List of Countries
  • For 7 days
  • Water Temperature
  • Satellite Maps
  • Weather Map
  • News
  • Weather Widgets
  • user-avatar
    Login

    Hourly Weather Jinzhou

    Today, 20 February, Wednesday

    Time Temperature Precipitation Wind Pressure Humidity
    00:00 -2°C° 0 mm 4 mps 765 mmHg 84%
    01:00 -2°C° 0 mm 4 mps 766 mmHg 84%
    02:00 -2°C° 0 mm 4 mps 766 mmHg 84%
    03:00 -2°C° 0 mm 4 mps 766 mmHg 84%
    04:00 -1°C° 0 mm 3 mps 766 mmHg 84%
    05:00 -1°C° 0 mm 3 mps 767 mmHg 84%
    06:00 -1°C° 0 mm 3 mps 767 mmHg 81%
    07:00 -1°C° 0 mm 2 mps 767 mmHg 77%
    08:00 -1°C° 0 mm 2 mps 768 mmHg 73%
    09:00 +1°C° 0 mm 2 mps 768 mmHg 66%
    10:00 +2°C° 0 mm 2 mps 768 mmHg 59%
    11:00 +3°C° 0 mm 2 mps 769 mmHg 51%
    12:00 +2°C° 0 mm 3 mps 769 mmHg 50%
    13:00 +2°C° 0 mm 3 mps 768 mmHg 48%
    14:00 +1°C° 0 mm 4 mps 768 mmHg 47%
    15:00 +1°C° 0 mm 4 mps 769 mmHg 47%
    16:00 +1°C° 0 mm 3 mps 769 mmHg 48%
    17:00 +1°C° 0 mm 3 mps 769 mmHg 49%
    18:00 0°C° 0 mm 3 mps 769 mmHg 49%
    19:00 +1°C° 0 mm 2 mps 770 mmHg 50%
    20:00 -1°C° 0 mm 2 mps 770 mmHg 51%
    21:00 -1°C° 0 mm 2 mps 770 mmHg 50%
    22:00 -1°C° 0 mm 2 mps 770 mmHg 49%
    23:00 -1°C° 0 mm 2 mps 771 mmHg 48%

    Tomorrow, 21 February, Thursday

    Time Temperature Precipitation Wind Pressure Humidity
    00:00 -1°C° 0 mm 2 mps 771 mmHg 49%
    01:00 -1°C° 0 mm 2 mps 771 mmHg 49%
    02:00 -1°C° 0 mm 2 mps 771 mmHg 50%
    03:00 -1°C° 0 mm 2 mps 770 mmHg 52%
    04:00 -1°C° 0 mm 2 mps 770 mmHg 54%
    05:00 -1°C° 0 mm 2 mps 770 mmHg 57%
    06:00 -1°C° 0 mm 2 mps 770 mmHg 56%
    07:00 +2°C° 0 mm 1 mps 770 mmHg 56%
    08:00 +2°C° 0 mm 1 mps 770 mmHg 56%
    09:00 +2°C° 0 mm 2 mps 770 mmHg 51%
    10:00 +3°C° 0 mm 2 mps 770 mmHg 47%
    11:00 +4°C° 0 mm 2 mps 770 mmHg 43%
    12:00 +4°C° 0 mm 2 mps 770 mmHg 41%
    13:00 +3°C° 0 mm 3 mps 769 mmHg 39%
    14:00 +4°C° 0 mm 3 mps 769 mmHg 38%
    15:00 +4°C° 0 mm 2 mps 768 mmHg 39%
    16:00 +4°C° 0 mm 2 mps 768 mmHg 40%
    17:00 +4°C° 0 mm 2 mps 768 mmHg 41%
    18:00 +3°C° 0 mm 2 mps 768 mmHg 43%
    19:00 +2°C° 0 mm 2 mps 768 mmHg 45%
    20:00 +2°C° 0 mm 2 mps 768 mmHg 47%
    21:00 +1°C° 0 mm 2 mps 768 mmHg 48%
    22:00 +2°C° 0 mm 1 mps 768 mmHg 49%
    23:00 +2°C° 0 mm 1 mps 768 mmHg 50%

    Day after tomorrow, 22 February, Friday

    Time Temperature Precipitation Wind Pressure Humidity
    00:00 +2°C° 0 mm 1 mps 767 mmHg 50%
    01:00 +2°C° 0 mm 1 mps 767 mmHg 50%
    02:00 +2°C° 0 mm 1 mps 767 mmHg 50%
    03:00 +2°C° 0 mm 1 mps 767 mmHg 50%
    04:00 +2°C° 0 mm 1 mps 766 mmHg 50%
    05:00 +2°C° 0 mm 1 mps 766 mmHg 50%
    06:00 +2°C° 0 mm 1 mps 766 mmHg 51%
    07:00 +2°C° 0 mm 1 mps 767 mmHg 51%
    08:00 +2°C° 0 mm 1 mps 767 mmHg 52%
    09:00 +3°C° 0 mm 1 mps 767 mmHg 51%
    10:00 +4°C° 0 mm 1 mps 767 mmHg 50%
    11:00 +4°C° 0 mm 1 mps 767 mmHg 49%
    12:00 +4°C° 0 mm 2 mps 766 mmHg 47%
    13:00 +4°C° 0 mm 3 mps 766 mmHg 45%
    14:00 +4°C° 0 mm 4 mps 765 mmHg 44%
    15:00 +4°C° 0 mm 4 mps 765 mmHg 42%
    16:00 +3°C° 0 mm 5 mps 765 mmHg 41%
    17:00 +2°C° 0 mm 5 mps 766 mmHg 39%
    18:00 +2°C° 0 mm 5 mps 766 mmHg 39%
    19:00 +1°C° 0 mm 5 mps 766 mmHg 40%
    20:00 +1°C° 0 mm 5 mps 766 mmHg 40%
    21:00 +1°C° 0 mm 6 mps 767 mmHg 40%
    22:00 -1°C° 0 mm 6 mps 767 mmHg 39%
    23:00 -1°C° 0 mm 6 mps 767 mmHg 38%

    23 February, Saturday

    Time Temperature Precipitation Wind Pressure Humidity
    00:00 -1°C° 0 mm 6 mps 767 mmHg 40%
    01:00 -1°C° 0 mm 6 mps 767 mmHg 41%
    02:00 -1°C° 0 mm 6 mps 767 mmHg 42%
    03:00 -2°C° 0 mm 6 mps 767 mmHg 44%
    04:00 -2°C° 0 mm 6 mps 767 mmHg 46%
    05:00 -1°C° 0 mm 5 mps 768 mmHg 48%
    06:00 -1°C° 0 mm 5 mps 768 mmHg 48%
    07:00 -1°C° 0 mm 5 mps 768 mmHg 48%
    08:00 -1°C° 0 mm 5 mps 769 mmHg 48%
    09:00 0°C° 0 mm 5 mps 769 mmHg 44%
    10:00 +1°C° 0 mm 4 mps 769 mmHg 40%
    11:00 +3°C° 0 mm 4 mps 769 mmHg 36%
    12:00 +4°C° 0 mm 3 mps 769 mmHg 35%
    13:00 +5°C° 0 mm 3 mps 768 mmHg 35%
    14:00 +5°C° 0 mm 3 mps 768 mmHg 35%
    15:00 +5°C° 0 mm 3 mps 768 mmHg 37%
    16:00 +4°C° 0 mm 3 mps 767 mmHg 40%
    17:00 +4°C° 0 mm 3 mps 767 mmHg 43%
    18:00 +4°C° 0 mm 2 mps 767 mmHg 45%
    19:00 +3°C° 0 mm 2 mps 768 mmHg 47%
    20:00 +2°C° 0 mm 2 mps 768 mmHg 49%
    21:00 +2°C° 0 mm 2 mps 768 mmHg 47%
    22:00 +3°C° 0 mm 1 mps 768 mmHg 45%
    23:00 +2°C° 0 mm 1 mps 768 mmHg 43%

    24 February, Sunday

    Time Temperature Precipitation Wind Pressure Humidity
    00:00 +1°C° 0 mm 2 mps 768 mmHg 42%
    01:00 +1°C° 0 mm 2 mps 767 mmHg 40%
    02:00 +1°C° 0 mm 2 mps 767 mmHg 39%
    03:00 +1°C° 0 mm 2 mps 767 mmHg 42%
    04:00 +1°C° 0 mm 2 mps 766 mmHg 44%
    05:00 +1°C° 0 mm 2 mps 766 mmHg 47%
    06:00 +1°C° 0 mm 2 mps 766 mmHg 47%
    07:00 +2°C° 0 mm 2 mps 766 mmHg 48%
    08:00 +2°C° 0 mm 2 mps 766 mmHg 48%
    09:00 +2°C° 0 mm 3 mps 766 mmHg 46%
    10:00 +3°C° 0 mm 3 mps 766 mmHg 43%
    11:00 +4°C° 0 mm 4 mps 766 mmHg 41%
    12:00 +4°C° 0 mm 4 mps 766 mmHg 41%
    13:00 +4°C° 0 mm 3 mps 765 mmHg 40%
    14:00 +5°C° 0 mm 3 mps 765 mmHg 40%
    15:00 +4°C° 0 mm 3 mps 765 mmHg 42%
    16:00 +3°C° 0 mm 3 mps 765 mmHg 44%
    17:00 +4°C° 0 mm 2 mps 765 mmHg 47%
    18:00 +4°C° 0 mm 2 mps 765 mmHg 49%
    19:00 +3°C° 0 mm 2 mps 765 mmHg 51%
    20:00 +4°C° 0 mm 1 mps 766 mmHg 53%
    21:00 +2°C° 0 mm 2 mps 766 mmHg 53%
    22:00 +2°C° 0 mm 2 mps 766 mmHg 53%
    23:00 +2°C° 0 mm 2 mps 766 mmHg 52%

    25 February, Monday

    Time Temperature Precipitation Wind Pressure Humidity
    00:00 +1°C° 0 mm 3 mps 767 mmHg 52%
    01:00 +1°C° 0 mm 3 mps 767 mmHg 51%
    02:00 +1°C° 0 mm 3 mps 767 mmHg 50%
    03:00 +1°C° 0 mm 3 mps 767 mmHg 48%
    04:00 0°C° 0 mm 4 mps 767 mmHg 46%
    05:00 -1°C° 0 mm 4 mps 768 mmHg 44%
    06:00 -1°C° 0 mm 4 mps 768 mmHg 43%
    07:00 0°C° 0 mm 3 mps 769 mmHg 43%
    08:00 +1°C° 0 mm 3 mps 769 mmHg 42%
    09:00 +2°C° 0 mm 3 mps 769 mmHg 39%
    10:00 +3°C° 0 mm 3 mps 769 mmHg 36%
    11:00 +4°C° 0 mm 3 mps 769 mmHg 32%
    12:00 +4°C° 0 mm 3 mps 769 mmHg 31%
    13:00 +4°C° 0 mm 3 mps 769 mmHg 31%
    14:00 +5°C° 0 mm 3 mps 769 mmHg 30%
    15:00 +5°C° 0 mm 3 mps 769 mmHg 31%
    16:00 +5°C° 0 mm 2 mps 768 mmHg 32%
    17:00 +5°C° 0 mm 2 mps 768 mmHg 33%
    18:00 +4°C° 0 mm 2 mps 769 mmHg 35%
    19:00 +3°C° 0 mm 2 mps 769 mmHg 37%
    20:00 +3°C° 0 mm 2 mps 769 mmHg 39%
    21:00 +2°C° 0 mm 2 mps 769 mmHg 39%
    22:00 +3°C° 0 mm 1 mps 769 mmHg 39%
    23:00 +3°C° 0 mm 1 mps 769 mmHg 39%
    Show more